Wind_Speed
41 41 42 42 44 45 46 46 47 46 44 43 43 44 45 46 47 48 49 48 48 48 48 49 48 47 46 46 45 45 46 46 46 45 45 45 44 44
40 40 40 42 42 43 44 45 45 45 43 41 41 42 43 44 45 46 47 47 47 48 48 48 48 47 47 45 45 45 46 46 45 44 44 44 43 43
38 39 39 41 40 41 43 43 42 43 42 41 42 42 42 42 44 44 45 46 45 46 47 46 46 45 45 43 43 43 43 45 45 44 43 42 41 42
36 37 37 37 38 39 39 39 39 40 41 41 41 42 42 43 43 43 43 44 44 45 45 44 43 42 42 42 42 43 43 44 43 42 41 41 41 42
35 34 35 35 35 36 36 36 37 38 39 39 39 40 40 41 41 41 41 42 43 43 43 42 41 41 41 41 42 42 43 43 42 40 39 40 40 41
33 32 32 33 33 35 35 35 36 36 37 36 36 37 38 39 39 39 40 41 41 41 40 39 39 39 40 40 41 42 43 43 41 39 39 39 39 39
30 31 32 32 32 33 33 34 34 35 35 35 34 35 36 36 36 38 38 38 38 38 38 37 37 37 40 40 40 41 41 40 39 38 37 37 36 37
29 31 32 32 31 31 32 33 33 34 35 35 34 33 34 34 35 36 36 35 35 35 36 36 37 37 38 38 39 39 39 38 37 35 34 34 34 34
29 30 31 30 31 31 32 32 33 33 34 33 33 32 32 32 33 34 34 33 33 33 35 35 36 36 37 37 37 36 35 35 33 32 31 32 32 32
28 28 28 29 30 32 33 32 32 32 31 31 32 31 31 32 32 32 32 31 31 31 33 34 34 34 35 35 34 33 31 31 31 30 30 30 29 28
27 28 29 30 31 32 31 30 30 30 31 31 30 31 31 32 32 32 31 30 29 30 32 32 32 32 32 32 31 30 29 28 28 28 27 27 26 26
28 29 29 30 30 30 29 29 28 28 29 29 30 31 31 31 31 31 30 29 28 27 29 30 30 30 30 29 29 29 28 27 27 25 25 24 25 25
28 29 29 28 28 27 28 27 27 27 27 27 29 30 30 30 29 28 28 27 26 25 27 29 28 28 28 27 26 26 26 26 26 25 23 23 23 24
28 28 28 27 26 26 26 26 26 26 26 26 27 27 27 27 27 26 25 25 24 24 26 26 25 26 25 25 25 24 24 23 23 23 22 23 23 22
27 27 26 25 25 25 25 25 25 25 25 24 24 24 24 24 25 24 23 23 23 23 24 24 24 24 24 23 23 22 22 21 21 21 21 21 21 21
25 25 25 25 24 25 25 25 25 24 24 23 23 23 23 23 23 23 22 22 22 22 22 22 22 22 21 21 20 20 20 19 19 19 19 19 20 19
24 23 22 22 22 22 23 23 23 23 23 23 23 23 23 21 21 21 21 21 21 20 20 21 21 21 20 19 18 17 17 17 16 17 17 17 17 16
22 21 21 20 20 20 21 21 22 22 23 23 23 22 21 20 20 20 20 20 20 20 19 19 19 19 18 16 16 16 15 14 14 14 14 14 13 13
21 20 20 20 20 20 20 21 21 22 22 22 22 21 19 19 19 20 19 19 18 18 18 18 17 17 16 15 15 14 13 13 12 12 12 11 10 10
21 21 21 20 20 20 20 20 20 20 20 20 20 20 19 18 17 18 18 17 17 17 16 15 15 14 14 14 13 12 11 10 10 10 10 9 9 8
21 21 21 21 20 20 19 19 19 19 18 18 17 17 17 17 16 16 15 15 15 14 14 14 14 13 12 12 11 10 9 9 9 9 8 8 7 6
20 20 21 20 20 19 19 19 18 17 16 16 16 16 15 15 15 15 14 13 13 13 13 13 12 12 11 10 10 9 8 8 8 7 7 6 5 4
19 19 19 19 18 18 18 18 17 16 15 14 14 15 15 14 13 13 13 12 12 12 12 11 11 11 10 9 9 9 8 7 7 6 6 5 4 3
Wind_Direction
261 263 263 264 264 263 262 261 260 259 258 259 259 260 260 261 261 262 263 264 265 265 267 267 269 271 273 276 280 282 286 289 292 294 296 297 299 301
261 262 263 264 264 264 263 261 260 260 260 259 258 259 260 261 262 263 263 263 264 265 266 265 267 269 273 276 278 282 285 288 290 293 294 295 298 300
263 264 265 266 266 265 264 261 260 261 261 260 260 260 261 262 264 265 264 264 265 266 266 267 267 268 271 274 277 281 284 285 288 291 292 294 297 300
264 264 264 266 267 265 263 262 261 261 262 261 262 263 262 263 265 265 265 264 264 266 266 266 267 268 270 273 276 278 282 285 289 291 292 293 296 299
264 264 264 265 266 263 262 262 263 263 264 263 262 262 263 262 263 265 265 265 265 265 265 265 265 266 271 274 276 280 281 285 288 290 291 292 295 299
264 264 265 266 265 263 263 263 264 264 264 264 263 263 263 263 263 264 264 265 265 265 265 265 265 266 270 273 277 279 280 283 285 286 289 292 295 299
263 262 265 266 266 265 264 264 265 265 264 264 264 264 264 264 265 265 264 265 266 265 265 265 266 266 269 273 276 278 281 283 284 284 288 291 295 299
262 263 265 266 265 265 265 266 267 267 265 266 265 265 264 265 266 267 265 265 265 265 267 266 266 267 269 271 275 278 281 282 284 284 287 291 295 299
265 264 263 264 265 265 265 268 269 268 268 268 266 266 266 265 267 268 268 266 266 266 266 266 265 267 269 271 274 276 279 281 281 282 287 292 295 298
268 267 268 269 268 267 267 268 270 270 270 268 268 268 267 267 269 269 269 267 264 264 265 266 265 266 267 270 271 274 277 278 279 282 287 291 294 297
272 273 272 271 270 269 268 269 271 271 268 269 270 269 268 268 270 270 270 268 264 263 265 267 267 267 266 267 267 270 273 276 278 280 284 288 292 298
275 275 274 272 271 268 268 269 271 270 268 269 269 269 268 268 270 270 271 268 265 265 265 267 268 268 266 266 268 271 272 273 274 276 282 286 292 297
275 274 274 273 272 270 270 270 270 268 268 268 267 268 267 267 269 271 270 267 264 265 266 269 268 268 268 268 269 270 270 272 275 277 281 287 291 295
277 276 276 274 271 270 269 269 268 267 269 269 268 269 268 267 267 267 267 266 266 266 266 267 268 270 269 267 268 269 271 273 274 275 279 286 291 294
277 277 276 273 271 271 269 268 268 268 269 267 266 265 265 265 267 266 266 266 266 267 267 265 266 269 270 270 269 271 271 271 271 273 277 282 289 292
278 277 274 272 271 270 269 269 270 270 271 268 266 265 266 265 265 265 265 263 264 264 264 264 266 268 269 271 272 271 271 270 269 271 278 282 288 292
277 275 274 273 271 270 271 272 270 270 271 270 267 266 266 263 261 262 262 259 261 261 261 263 265 267 267 268 268 270 272 269 268 275 281 283 287 293
275 273 271 271 271 271 270 271 272 271 270 269 265 263 263 262 262 263 262 262 264 264 262 260 260 263 262 265 270 271 270 267 268 273 280 284 289 296
274 271 269 270 270 271 272 274 274 271 269 267 263 261 262 262 261 261 261 262 262 259 257 256 256 260 259 260 265 264 262 262 266 273 279 283 292 300
270 269 270 269 269 271 273 274 274 273 271 267 264 261 261 262 260 259 259 259 259 255 251 249 250 254 258 258 259 256 256 259 261 273 282 285 292 302
268 268 268 268 270 271 272 273 273 272 269 265 264 262 261 261 259 258 257 257 255 249 245 243 245 250 255 254 249 250 254 256 259 272 278 281 290 302
265 266 266 267 268 269 270 270 268 267 265 263 263 262 260 258 256 253 253 252 246 241 238 239 244 247 246 247 242 241 249 249 253 263 268 274 285 297
264 263 263 264 265 268 268 266 264 262 261 261 260 258 254 252 250 247 247 246 241 236 235 236 241 240 236 236 236 239 243 243 244 251 256 264 275 283
Height
5613 5615 5616 5618 5619 5620 5621 5622 5624 5626 5630 5633 5633 5633 5633 5635 5636 5638 5639 5641 5642 5644 5645 5646 5646 5646 5646 5644 5642 5640 5638 5634 5631 5626 5622 5617 5613 5608
5602 5604 5605 5606 5607 5608 5609 5610 5611 5613 5616 5620 5621 5622 5622 5623 5624 5625 5626 5627 5629 5631 5632 5632 5633 5634 5634 5633 5632 5629 5627 5623 5620 5616 5611 5607 5602 5598
5592 5593 5594 5595 5595 5596 5597 5598 5600 5601 5604 5607 5608 5610 5610 5611 5612 5613 5614 5615 5616 5617 5618 5620 5621 5621 5622 5621 5620 5618 5615 5612 5609 5605 5601 5597 5593 5588
5582 5583 5584 5584 5585 5586 5586 5588 5589 5591 5593 5595 5597 5598 5600 5600 5601 5602 5603 5603 5604 5605 5606 5607 5608 5609 5610 5610 5608 5607 5605 5601 5598 5594 5591 5588 5583 5578
5572 5573 5574 5575 5575 5576 5577 5578 5579 5581 5582 5584 5587 5588 5589 5589 5590 5591 5591 5592 5593 5593 5594 5596 5597 5598 5598 5598 5597 5596 5594 5591 5588 5585 5581 5578 5573 5569
5563 5564 5565 5566 5566 5567 5568 5569 5570 5571 5573 5574 5576 5578 5579 5578 5579 5580 5581 5581 5582 5583 5583 5585 5586 5587 5587 5587 5586 5584 5583 5580 5577 5575 5572 5568 5564 5560
5555 5556 5556 5557 5557 5558 5559 5560 5561 5562 5563 5564 5566 5568 5569 5569 5570 5570 5571 5571 5572 5572 5573 5575 5576 5576 5576 5576 5575 5573 5571 5570 5567 5565 5562 5559 5556 5551
5547 5547 5548 5549 5550 5550 5550 5551 5552 5553 5554 5555 5557 5558 5559 5559 5559 5560 5560 5561 5562 5564 5564 5565 5565 5565 5565 5565 5564 5562 5561 5560 5558 5556 5554 5551 5548 5544
5538 5539 5540 5541 5541 5542 5542 5542 5543 5544 5545 5546 5547 5548 5549 5550 5550 5550 5550 5551 5552 5553 5553 5554 5555 5555 5555 5554 5554 5553 5552 5550 5549 5547 5546 5543 5540 5536
5531 5531 5531 5532 5532 5532 5533 5534 5534 5534 5535 5536 5538 5538 5539 5540 5540 5540 5540 5541 5542 5542 5542 5544 5545 5545 5545 5545 5545 5544 5543 5542 5541 5540 5538 5535 5533 5529
5523 5523 5523 5524 5524 5523 5524 5525 5525 5525 5526 5526 5527 5528 5529 5530 5530 5530 5531 5531 5533 5534 5533 5533 5535 5535 5536 5536 5536 5535 5535 5534 5533 5532 5530 5528 5525 5522
5515 5515 5515 5515 5514 5514 5515 5516 5517 5517 5518 5518 5519 5519 5520 5521 5521 5521 5521 5522 5523 5524 5524 5525 5525 5526 5527 5528 5527 5527 5527 5526 5526 5525 5523 5521 5519 5516
5507 5507 5506 5506 5506 5506 5506 5507 5508 5509 5509 5510 5511 5511 5511 5512 5512 5512 5512 5513 5514 5515 5516 5516 5517 5517 5518 5520 5519 5519 5519 5519 5518 5517 5516 5515 5513 5511
5499 5498 5498 5497 5497 5498 5498 5499 5500 5501 5501 5502 5502 5503 5503 5504 5504 5504 5504 5505 5506 5507 5508 5508 5509 5510 5511 5512 5512 5512 5511 5511 5511 5511 5510 5509 5507 5505
5490 5490 5490 5490 5490 5490 5490 5491 5492 5493 5493 5494 5494 5495 5495 5495 5495 5496 5497 5498 5498 5499 5500 5501 5502 5503 5504 5505 5505 5505 5505 5505 5505 5504 5504 5503 5501 5499
5483 5482 5482 5482 5482 5483 5483 5484 5484 5485 5485 5486 5486 5486 5487 5487 5488 5489 5490 5491 5492 5493 5494 5494 5495 5496 5497 5498 5499 5499 5499 5499 5499 5498 5498 5497 5495 5493
5475 5475 5475 5475 5475 5476 5476 5476 5477 5477 5477 5478 5478 5479 5479 5480 5481 5482 5483 5485 5486 5487 5488 5489 5489 5490 5491 5492 5493 5493 5493 5493 5493 5493 5492 5491 5490 5488
5468 5468 5468 5468 5469 5469 5469 5470 5470 5470 5470 5471 5471 5472 5473 5474 5475 5476 5477 5478 5479 5480 5482 5483 5484 5485 5485 5486 5487 5487 5487 5488 5488 5488 5487 5486 5485 5484
5461 5461 5462 5462 5462 5462 5463 5463 5463 5463 5463 5463 5464 5465 5466 5467 5468 5470 5471 5472 5473 5475 5476 5477 5478 5479 5480 5481 5482 5482 5482 5483 5483 5483 5483 5482 5481 5480
5455 5455 5455 5456 5456 5456 5456 5456 5456 5456 5456 5457 5458 5459 5460 5461 5462 5464 5465 5467 5468 5469 5470 5472 5473 5474 5475 5477 5477 5478 5478 5478 5479 5479 5479 5478 5477 5476
5448 5448 5449 5449 5449 5450 5450 5450 5450 5450 5451 5451 5452 5453 5454 5456 5457 5459 5460 5461 5463 5464 5466 5468 5469 5470 5471 5472 5473 5474 5474 5475 5476 5476 5476 5475 5475 5474
5441 5442 5442 5443 5443 5443 5444 5445 5445 5445 5446 5446 5447 5448 5450 5451 5453 5454 5456 5457 5458 5460 5462 5463 5465 5466 5467 5468 5470 5471 5472 5472 5472 5473 5473 5474 5473 5473
5435 5436 5436 5437 5437 5438 5438 5439 5440 5440 5441 5442 5443 5444 5445 5447 5449 5450 5452 5453 5455 5456 5458 5460 5461 5463 5464 5465 5467 5468 5469 5470 5470 5471 5471 5471 5472 5471